,,Stat6,,Stat2,,Stat8,,Stat9,,Stat10,,Wind1,,Wind1,
time,status,PA1M_AVG,status,PR1M_SUM,status,RH1M_AVG,status,SR1M_AVG,status,TA1M_AVG,status,W1dAve1m,status,W1sAve1m,
2009-02-05, 00:00:00,VALID,918.849,VALID,0,VALID,95.8269,VALID,-0.0679233,VALID,18.1983,VALID,22,VALID,0,
2009-02-05, 00:01:00,VALID,918.843,VALID,0,VALID,95.673,VALID,-0.0849042,VALID,18.2342,VALID,28,VALID,0,
2009-02-05, 00:02:00,VALID,918.845,VALID,0,VALID,95.5407,VALID,-0.101885,VALID,18.1953,VALID,28,VALID,0,
2009-02-05, 00:03:00,VALID,918.836,VALID,0,VALID,95.7124,VALID,-0.101885,VALID,18.1914,VALID,23,VALID,0,
2009-02-05, 00:04:00,VALID,918.819,VALID,0,VALID,95.8396,VALID,-0.0849042,VALID,18.218,VALID,330,VALID,0,
2009-02-05, 00:05:00,VALID,918.807,VALID,0,VALID,95.5382,VALID,-0.0679233,VALID,18.1981,VALID,330,VALID,0,
2009-02-05, 00:06:00,VALID,918.798,VALID,0,VALID,95.9451,VALID,-0.0509425,VALID,18.1854,VALID,17,VALID,0,
2009-02-05, 00:07:00,VALID,918.789,VALID,0,VALID,95.8853,VALID,-0.0849042,VALID,18.1626,VALID,25,VALID,0,
2009-02-05, 00:08:00,VALID,918.781,VALID,0,VALID,95.9362,VALID,-0.101885,VALID,18.1339,VALID,22,VALID,0,
2009-02-05, 00:09:00,VALID,918.765,VALID,0,VALID,96.3825,VALID,-0.101885,VALID,18.1436,VALID,16,VALID,0,
2009-02-05, 00:10:00,VALID,918.743,VALID,0,VALID,96.4881,VALID,-0.101885,VALID,18.1761,VALID,16,VALID,0,
2009-02-05, 00:11:00,VALID,918.736,VALID,0,VALID,96.4118,VALID,-0.101885,VALID,18.2018,VALID,16,VALID,0,
2009-02-05, 00:12:00,VALID,918.729,VALID,0,VALID,96.2783,VALID,-0.101885,VALID,18.1826,VALID,19,VALID,0,
2009-02-05, 00:13:00,VALID,918.722,VALID,0,VALID,96.5275,VALID,-0.118866,VALID,18.1601,VALID,29,VALID,0,
2009-02-05, 00:14:00,VALID,918.738,VALID,0,VALID,96.7895,VALID,-0.0679233,VALID,18.1564,VALID,29,VALID,0,
2009-02-05, 00:15:00,VALID,918.727,VALID,0,VALID,96.8785,VALID,-0.0849042,VALID,18.1564,VALID,29,VALID,0,
2009-02-05, 00:16:00,VALID,918.7,VALID,0,VALID,96.7653,VALID,-0.101885,VALID,18.1629,VALID,351,VALID,0,
2009-02-05, 00:17:00,VALID,918.69,VALID,0,VALID,96.731,VALID,-0.0679233,VALID,18.1721,VALID,324,VALID,0,
2009-02-05, 00:18:00,VALID,918.692,VALID,0,VALID,96.9471,VALID,-0.101885,VALID,18.2215,VALID,353,VALID,0,
2009-02-05, 00:19:00,VALID,918.68,VALID,0,VALID,96.675,VALID,-0.0679233,VALID,18.2662,VALID,354,VALID,0,
2009-02-05, 00:20:00,VALID,918.704,VALID,0,VALID,96.4245,VALID,-0.101885,VALID,18.2764,VALID,354,VALID,0,
2009-02-05, 00:21:00,VALID,918.721,VALID,0,VALID,96.3851,VALID,-0.0509425,VALID,18.2959,VALID,354,VALID,0,
2009-02-05, 00:22:00,VALID,918.723,VALID,0,VALID,96.1638,VALID,-0.0849042,VALID,18.2989,VALID,354,VALID,0,
2009-02-05, 00:23:00,VALID,918.721,VALID,0,VALID,95.8701,VALID,0.0339617,VALID,18.3269,VALID,354,VALID,0,
2009-02-05, 00:24:00,VALID,918.711,VALID,0,VALID,95.4517,VALID,0.0169808,VALID,18.307,VALID,354,VALID,0,
2009-02-05, 00:25:00,VALID,918.694,VALID,0,VALID,95.4466,VALID,0.0339617,VALID,18.1974,VALID,354,VALID,0,
2009-02-05, 00:26:00,VALID,918.692,VALID,0,VALID,95.9731,VALID,-0.0169808,VALID,18.1258,VALID,354,VALID,0,
2009-02-05, 00:27:00,VALID,918.678,VALID,0,VALID,96.4194,VALID,0.0339617,VALID,18.0992,VALID,353,VALID,0,
2009-02-05, 00:28:00,VALID,918.671,VALID,0,VALID,96.5924,VALID,0.0169808,VALID,18.1386,VALID,335,VALID,0,
2009-02-05, 00:29:00,VALID,918.687,VALID,0,VALID,96.4639,VALID,0.0169808,VALID,18.1608,VALID,335,VALID,0,
2009-02-05, 00:30:00,VALID,918.703,VALID,0,VALID,96.4436,VALID,0.0169808,VALID,18.1708,VALID,335,VALID,0,
2009-02-05, 00:31:00,VALID,918.693,VALID,0,VALID,96.4614,VALID,0.0169808,VALID,18.1874,VALID,335,VALID,0,
2009-02-05, 00:32:00,VALID,918.689,VALID,0,VALID,96.3953,VALID,0.0339617,VALID,18.2,VALID,335,VALID,0,
2009-02-05, 00:33:00,VALID,918.692,VALID,0,VALID,96.3622,VALID,0,VALID,18.2129,VALID,335,VALID,0,
2009-02-05, 00:34:00,VALID,918.692,VALID,0,VALID,96.3113,VALID,0,VALID,18.2553,VALID,335,VALID,0,
2009-02-05, 00:35:00,VALID,918.691,VALID,0,VALID,96.1689,VALID,0,VALID,18.2583,VALID,335,VALID,0,
2009-02-05, 00:36:00,VALID,918.69,VALID,0,VALID,96.1536,VALID,0,VALID,18.2393,VALID,335,VALID,0,
2009-02-05, 00:37:00,VALID,918.698,VALID,0,VALID,96.2706,VALID,0.0339617,VALID,18.2261,VALID,335,VALID,0,
2009-02-05, 00:38:00,VALID,918.67,VALID,0,VALID,96.4436,VALID,-0.0849042,VALID,18.2405,VALID,335,VALID,0,
2009-02-05, 00:39:00,VALID,918.663,VALID,0,VALID,96.2897,VALID,-0.101885,VALID,18.2732,VALID,335,VALID,0,
2009-02-05, 00:40:00,VALID,918.663,VALID,0,VALID,96.1715,VALID,-0.101885,VALID,18.2889,VALID,335,VALID,0,
2009-02-05, 00:41:00,VALID,918.675,VALID,0,VALID,96.0964,VALID,-0.101885,VALID,18.3153,VALID,335,VALID,0,
2009-02-05, 00:42:00,VALID,918.681,VALID,0,VALID,95.954,VALID,-0.0509425,VALID,18.3179,VALID,335,VALID,0,
2009-02-05, 00:43:00,VALID,918.675,VALID,0,VALID,95.9782,VALID,-0.0509425,VALID,18.2915,VALID,335,VALID,0,
2009-02-05, 00:44:00,VALID,918.661,VALID,0,VALID,95.9756,VALID,-0.0679233,VALID,18.3056,VALID,335,VALID,0,
2009-02-05, 00:45:00,VALID,918.652,VALID,0,VALID,95.9438,VALID,-0.101885,VALID,18.2894,VALID,335,VALID,0,
2009-02-05, 00:46:00,VALID,918.642,VALID,0,VALID,95.912,VALID,-0.0849042,VALID,18.2275,VALID,335,VALID,0,
2009-02-05, 00:47:00,VALID,918.633,VALID,0,VALID,96.0138,VALID,-0.0849042,VALID,18.1464,VALID,335,VALID,0,
2009-02-05, 00:48:00,VALID,918.64,VALID,0,VALID,96.3622,VALID,-0.0849042,VALID,18.117,VALID,335,VALID,0,
2009-02-05, 00:49:00,VALID,918.61,VALID,0,VALID,96.5809,VALID,-0.0849042,VALID,18.1237,VALID,335,VALID,0,
2009-02-05, 00:50:00,VALID,918.594,VALID,0,VALID,96.6966,VALID,-0.101885,VALID,18.1436,VALID,335,VALID,0,
2009-02-05, 00:51:00,VALID,918.581,VALID,0,VALID,96.7462,VALID,-0.0849042,VALID,18.1596,VALID,335,VALID,0,
2009-02-05, 00:52:00,VALID,918.567,VALID,0,VALID,96.7589,VALID,-0.101885,VALID,18.1599,VALID,335,VALID,0,
2009-02-05, 00:53:00,VALID,918.564,VALID,0,VALID,96.7246,VALID,0,VALID,18.1583,VALID,335,VALID,0,
2009-02-05, 00:54:00,VALID,918.547,VALID,0,VALID,96.792,VALID,0,VALID,18.1583,VALID,335,VALID,0,
2009-02-05, 00:55:00,VALID,918.529,VALID,0,VALID,96.628,VALID,0,VALID,18.1518,VALID,335,VALID,0,
2009-02-05, 00:56:00,VALID,918.518,VALID,0,VALID,96.6356,VALID,0,VALID,18.1191,VALID,335,VALID,0,
2009-02-05, 00:57:00,VALID,918.489,VALID,0,VALID,96.7297,VALID,0,VALID,18.1092,VALID,335,VALID,0,
2009-02-05, 00:58:00,VALID,918.455,VALID,0,VALID,96.7882,VALID,-0.0169808,VALID,18.1096,VALID,335,VALID,0,
2009-02-05, 00:59:00,VALID,918.455,VALID,0,VALID,96.7513,VALID,0.0339617,VALID,18.0839,VALID,335,VALID,0,
2009-02-05, 01:00:00,VALID,918.441,VALID,0,VALID,96.8365,VALID,0,VALID,18.0677,VALID,335,VALID,0,
2009-02-05, 01:01:00,VALID,918.422,VALID,0,VALID,96.9471,VALID,-0.0339617,VALID,18.0515,VALID,335,VALID,0,
2009-02-05, 01:02:00,VALID,918.41,VALID,0,VALID,96.9611,VALID,-0.0169808,VALID,18.0126,VALID,335,VALID,0,
2009-02-05, 01:03:00,VALID,918.415,VALID,0,VALID,97.1239,VALID,0,VALID,17.9697,VALID,335,VALID,0,
2009-02-05, 01:04:00,VALID,918.41,VALID,0,VALID,97.2803,VALID,0,VALID,17.9674,VALID,335,VALID,0,
2009-02-05, 01:05:00,VALID,918.397,VALID,0,VALID,97.2256,VALID,0,VALID,17.9215,VALID,335,VALID,0,
2009-02-05, 01:06:00,VALID,918.409,VALID,0,VALID,97.3528,VALID,0,VALID,17.8437,VALID,335,VALID,0,
2009-02-05, 01:07:00,VALID,918.413,VALID,0,VALID,97.7851,VALID,0,VALID,17.8175,VALID,335,VALID,0,
2009-02-05, 01:08:00,VALID,918.424,VALID,0,VALID,98.0712,VALID,-0.101885,VALID,17.8291,VALID,335,VALID,0,
2009-02-05, 01:09:00,VALID,918.406,VALID,0,VALID,98.2149,VALID,-0.101885,VALID,17.8353,VALID,335,VALID,0,
2009-02-05, 01:10:00,VALID,918.408,VALID,0,VALID,98.309,VALID,-0.0849042,VALID,17.8286,VALID,335,VALID,0,
2009-02-05, 01:11:00,VALID,918.401,VALID,0,VALID,98.4095,VALID,-0.0849042,VALID,17.8453,VALID,335,VALID,0,
2009-02-05, 01:12:00,VALID,918.382,VALID,0,VALID,98.4031,VALID,-0.135847,VALID,17.8288,VALID,335,VALID,0,
2009-02-05, 01:13:00,VALID,918.376,VALID,0,VALID,98.2429,VALID,-0.135847,VALID,17.8064,VALID,335,VALID,0,
2009-02-05, 01:14:00,VALID,918.355,VALID,0,VALID,98.3624,VALID,-0.0849042,VALID,17.7702,VALID,335,VALID,0,
2009-02-05, 01:15:00,VALID,918.333,VALID,0,VALID,98.3637,VALID,-0.101885,VALID,17.748,VALID,335,VALID,0,
2009-02-05, 01:16:00,VALID,918.335,VALID,0,VALID,98.5315,VALID,-0.152827,VALID,17.7123,VALID,335,VALID,0,
2009-02-05, 01:17:00,VALID,918.313,VALID,0,VALID,98.838,VALID,-0.101885,VALID,17.6959,VALID,335,VALID,0,
2009-02-05, 01:18:00,VALID,918.3,VALID,0,VALID,98.9207,VALID,-0.118866,VALID,17.6762,VALID,335,VALID,0,
2009-02-05, 01:19:00,VALID,918.295,VALID,0,VALID,99.0186,VALID,-0.101885,VALID,17.644,VALID,335,VALID,0,
2009-02-05, 01:20:00,VALID,918.277,VALID,0,VALID,99.2665,VALID,-0.101885,VALID,17.6377,VALID,335,VALID,0,
2009-02-05, 01:21:00,VALID,918.271,VALID,0,VALID,99.3416,VALID,-0.101885,VALID,17.6505,INVALID,360,VALID,0,
2009-02-05, 01:22:00,VALID,918.251,VALID,0,VALID,99.2208,VALID,-0.101885,VALID,17.6243,INVALID,360,VALID,0,
2009-02-05, 01:23:00,VALID,918.233,VALID,0,VALID,99.0516,VALID,-0.0339617,VALID,17.5746,VALID,335,VALID,0,
2009-02-05, 01:24:00,VALID,918.219,VALID,0,VALID,99.2996,VALID,0,VALID,17.5292,VALID,6,VALID,0,
2009-02-05, 01:25:00,VALID,918.198,VALID,0,VALID,99.4954,VALID,0.0509425,VALID,17.5287,VALID,9,VALID,0,
2009-02-05, 01:26:00,VALID,918.198,VALID,0,VALID,99.6378,VALID,0.0339617,VALID,17.5257,VALID,10,VALID,0,
2009-02-05, 01:27:00,VALID,918.223,VALID,0,VALID,99.944,VALID,0,VALID,17.5519,VALID,10,VALID,0,
2009-02-05, 01:28:00,VALID,918.204,VALID,0,VALID,99.9906,VALID,0,VALID,17.5973,VALID,10,VALID,0,
2009-02-05, 01:29:00,VALID,918.203,VALID,0,VALID,99.8629,VALID,0,VALID,17.6364,VALID,10,VALID,0,
2009-02-05, 01:30:00,VALID,918.221,VALID,0,VALID,99.7675,VALID,0,VALID,17.6494,VALID,10,VALID,0,
2009-02-05, 01:31:00,VALID,918.208,VALID,0,VALID,99.9776,VALID,0,VALID,17.6714,VALID,10,VALID,0,
2009-02-05, 01:32:00,VALID,918.19,VALID,0,VALID,100,VALID,0,VALID,17.7365,VALID,10,VALID,0,
2009-02-05, 01:33:00,VALID,918.174,VALID,0,VALID,99.9308,VALID,0,VALID,17.7985,VALID,10,VALID,0,
2009-02-05, 01:34:00,VALID,918.189,VALID,0,VALID,99.5743,VALID,0,VALID,17.8372,VALID,7,VALID,0,
2009-02-05, 01:35:00,VALID,918.174,VALID,0,VALID,99.531,VALID,0,VALID,17.8595,VALID,301,VALID,0,
2009-02-05, 01:36:00,VALID,918.174,VALID,0,VALID,99.3772,VALID,-0.0169808,VALID,17.9088,VALID,301,VALID,0,
2009-02-05, 01:37:00,VALID,918.142,VALID,0,VALID,99.1483,VALID,0,VALID,17.9116,VALID,301,VALID,0,
2009-02-05, 01:38:00,VALID,918.108,VALID,0,VALID,99.2017,VALID,0,VALID,17.9315,VALID,341,VALID,0,
2009-02-05, 01:39:00,VALID,918.09,VALID,0,VALID,98.9893,VALID,0.0169808,VALID,17.9343,VALID,14,VALID,0,
2009-02-05, 01:40:00,VALID,918.083,VALID,0,VALID,98.8863,VALID,0,VALID,17.915,VALID,15,VALID,0,
2009-02-05, 01:41:00,VALID,918.065,VALID,0,VALID,98.927,VALID,0,VALID,17.8988,VALID,15,VALID,0,
2009-02-05, 01:42:00,VALID,918.061,VALID,0,VALID,99.1915,VALID,0,VALID,17.9051,VALID,15,VALID,0,
2009-02-05, 01:43:00,VALID,918.041,VALID,0,VALID,99.2805,VALID,-0.0169808,VALID,17.9405,VALID,15,VALID,0,
2009-02-05, 01:44:00,VALID,918.028,VALID,0,VALID,99.2068,VALID,-0.0339617,VALID,17.9732,VALID,15,VALID,0,
2009-02-05, 01:45:00,VALID,918.002,VALID,0,VALID,99.1152,VALID,0,VALID,17.9929,VALID,10,VALID,0,
2009-02-05, 01:46:00,VALID,917.987,VALID,0,VALID,99.0275,VALID,-0.0169808,VALID,18.0056,VALID,7,VALID,0,
2009-02-05, 01:47:00,VALID,917.983,VALID,0,VALID,98.9575,VALID,0,VALID,18.0188,VALID,7,VALID,0,
2009-02-05, 01:48:00,VALID,917.945,VALID,0,VALID,98.9168,VALID,-0.0169808,VALID,18.0186,VALID,7,VALID,0,
2009-02-05, 01:49:00,VALID,917.943,VALID,0,VALID,98.7922,VALID,-0.0169808,VALID,18.0153,VALID,7,VALID,0,
2009-02-05, 01:50:00,VALID,917.928,VALID,0,VALID,98.4858,VALID,-0.0169808,VALID,17.9767,VALID,5,VALID,0,
2009-02-05, 01:51:00,VALID,917.929,VALID,0,VALID,98.7045,VALID,-0.0169808,VALID,17.954,VALID,330,VALID,0,
2009-02-05, 01:52:00,VALID,917.893,VALID,0,VALID,98.791,VALID,0,VALID,17.947,VALID,330,VALID,0,
2009-02-05, 01:53:00,VALID,917.908,VALID,0,VALID,98.8329,VALID,0.0339617,VALID,17.9505,VALID,340,VALID,0,
2009-02-05, 01:54:00,VALID,917.896,VALID,0,VALID,98.8698,VALID,0,VALID,17.9567,VALID,343,VALID,0,
2009-02-05, 01:55:00,VALID,917.892,VALID,0,VALID,98.7185,VALID,0.0339617,VALID,17.9665,VALID,343,VALID,0,
2009-02-05, 01:56:00,VALID,917.89,VALID,0,VALID,98.5061,VALID,0.0169808,VALID,17.9306,VALID,343,VALID,0,
2009-02-05, 01:57:00,VALID,917.878,VALID,0,VALID,98.557,VALID,0,VALID,17.9248,VALID,343,VALID,0,
2009-02-05, 01:58:00,VALID,917.878,VALID,0,VALID,98.557,VALID,0,VALID,17.8923,VALID,343,VALID,0,
2009-02-05, 01:59:00,VALID,917.882,VALID,0,VALID,98.7121,VALID,0,VALID,17.8595,VALID,343,VALID,0,
2009-02-05, 02:00:00,VALID,917.879,VALID,0,VALID,98.8494,VALID,0.0169808,VALID,17.8532,VALID,343,VALID,0,
2009-02-05, 02:01:00,VALID,917.87,VALID,0,VALID,98.9067,VALID,-0.0339617,VALID,17.8664,VALID,343,VALID,0,
2009-02-05, 02:02:00,VALID,917.872,VALID,0,VALID,98.9792,VALID,0,VALID,17.8664,VALID,343,VALID,0,
2009-02-05, 02:03:00,VALID,917.858,VALID,0,VALID,98.8202,VALID,-0.0169808,VALID,17.8469,VALID,346,VALID,0,
2009-02-05, 02:04:00,VALID,917.851,VALID,0,VALID,98.8469,VALID,0,VALID,17.821,VALID,348,VALID,0,
2009-02-05, 02:05:00,VALID,917.856,VALID,0,VALID,99.0427,VALID,0.0169808,VALID,17.8171,VALID,348,VALID,0,
2009-02-05, 02:06:00,VALID,917.831,VALID,0,VALID,98.9766,VALID,0,VALID,17.8043,VALID,1,VALID,0,
2009-02-05, 02:07:00,VALID,917.821,VALID,0,VALID,99.2373,VALID,0,VALID,17.8013,VALID,6,VALID,0,
2009-02-05, 02:08:00,VALID,917.782,VALID,0,VALID,99.5094,VALID,-0.0679233,VALID,17.8673,VALID,13,VALID,0.2859,
2009-02-05, 02:09:00,VALID,917.778,VALID,0,VALID,99.3632,VALID,-0.0169808,VALID,18.0128,VALID,30,VALID,0.0790551,
2009-02-05, 02:10:00,VALID,917.769,VALID,0,VALID,98.6892,VALID,-0.0509425,VALID,18.0941,VALID,23,VALID,0.000347222,
2009-02-05, 02:11:00,VALID,917.751,VALID,0,VALID,98.379,VALID,-0.0849042,VALID,18.1469,VALID,24,VALID,0.0138889,
2009-02-05, 02:12:00,VALID,917.742,VALID,0,VALID,98.1564,VALID,-0.0339617,VALID,18.2011,VALID,24,VALID,0.0337358,
2009-02-05, 02:13:00,VALID,917.724,VALID,0,VALID,97.972,VALID,-0.0509425,VALID,18.25,VALID,23,VALID,0,
2009-02-05, 02:14:00,VALID,917.723,VALID,0,VALID,97.6961,VALID,-0.0679233,VALID,18.3019,VALID,22,VALID,0,
2009-02-05, 02:15:00,VALID,917.714,VALID,0,VALID,97.5422,VALID,-0.0679233,VALID,18.3278,VALID,13,VALID,0,
2009-02-05, 02:16:00,VALID,917.711,VALID,0,VALID,97.3337,VALID,-0.0169808,VALID,18.3343,VALID,14,VALID,0,
2009-02-05, 02:17:00,VALID,917.682,VALID,0,VALID,97.1417,VALID,-0.0169808,VALID,18.3047,VALID,25,VALID,0,
2009-02-05, 02:18:00,VALID,917.666,VALID,0,VALID,97.2053,VALID,-0.0339617,VALID,18.2889,VALID,19,VALID,0.00114329,
2009-02-05, 02:19:00,VALID,917.662,VALID,0,VALID,97.3769,VALID,-0.0849042,VALID,18.2952,VALID,23,VALID,0.00138889,
2009-02-05, 02:20:00,VALID,917.657,VALID,0,VALID,97.2994,VALID,-0.0509425,VALID,18.3308,VALID,27,VALID,0,
2009-02-05, 02:21:00,VALID,917.626,VALID,0,VALID,97.1722,VALID,-0.0849042,VALID,18.3674,VALID,26,VALID,0,
2009-02-05, 02:22:00,VALID,917.595,VALID,0,VALID,97.148,VALID,-0.0679233,VALID,18.373,VALID,21,VALID,0.159801,
2009-02-05, 02:23:00,VALID,917.585,VALID,0,VALID,97.1455,VALID,-0.0509425,VALID,18.3987,VALID,17,VALID,0.209162,
2009-02-05, 02:24:00,VALID,917.576,VALID,0,VALID,96.8696,VALID,-0.0679233,VALID,18.4376,VALID,22,VALID,0.178052,
2009-02-05, 02:25:00,VALID,917.584,VALID,0,VALID,96.9802,VALID,-0.0849042,VALID,18.4381,VALID,30,VALID,0.00334821,
2009-02-05, 02:26:00,VALID,917.594,VALID,0,VALID,97.0361,VALID,-0.0509425,VALID,18.4671,VALID,30,VALID,0,
2009-02-05, 02:27:00,VALID,917.584,VALID,0,VALID,97.1493,VALID,-0.0509425,VALID,18.4701,VALID,5,VALID,0,
2009-02-05, 02:28:00,VALID,917.592,VALID,0,VALID,97.1646,VALID,-0.0679233,VALID,18.5065,VALID,21,VALID,0,
2009-02-05, 02:29:00,VALID,917.579,VALID,0,VALID,97.0412,VALID,-0.0679233,VALID,18.5097,VALID,21,VALID,0,
2009-02-05, 02:30:00,VALID,917.557,VALID,0,VALID,97.115,VALID,-0.0509425,VALID,18.4865,VALID,19,VALID,0,
2009-02-05, 02:31:00,VALID,917.569,VALID,0,VALID,97.2294,VALID,-0.0679233,VALID,18.4865,VALID,21,VALID,0,
2009-02-05, 02:32:00,VALID,917.563,VALID,0,VALID,97.1989,VALID,-0.0849042,VALID,18.474,VALID,23,VALID,0,
2009-02-05, 02:33:00,VALID,917.547,VALID,0,VALID,97.4278,VALID,-0.0679233,VALID,18.4351,VALID,25,VALID,0.0634301,
2009-02-05, 02:34:00,VALID,917.545,VALID,0,VALID,97.602,VALID,-0.0509425,VALID,18.4446,VALID,22,VALID,0.0603693,
2009-02-05, 02:35:00,VALID,917.539,VALID,0,VALID,97.6694,VALID,-0.0849042,VALID,18.4543,VALID,23,VALID,0.0880682,
2009-02-05, 02:36:00,VALID,917.527,VALID,0,VALID,97.7037,VALID,-0.0849042,VALID,18.471,VALID,27,VALID,0,
2009-02-05, 02:37:00,VALID,917.517,VALID,0,VALID,97.6262,VALID,-0.0849042,VALID,18.484,VALID,32,VALID,0,
2009-02-05, 02:38:00,VALID,917.496,VALID,0,VALID,97.6478,VALID,-0.0509425,VALID,18.4868,VALID,29,VALID,0.119284,
2009-02-05, 02:39:00,VALID,917.479,VALID,0,VALID,97.63,VALID,-0.0169808,VALID,18.5032,VALID,22,VALID,0,
2009-02-05, 02:40:00,VALID,917.456,VALID,0,VALID,97.5194,VALID,-0.0339617,VALID,18.4705,VALID,21,VALID,0,
2009-02-05, 02:41:00,VALID,917.463,VALID,0,VALID,97.5791,VALID,-0.0509425,VALID,18.4117,VALID,18,VALID,0.0809659,
2009-02-05, 02:42:00,VALID,917.458,VALID,0,VALID,97.7584,VALID,-0.0169808,VALID,18.3762,VALID,26,VALID,0.0687099,
2009-02-05, 02:43:00,VALID,917.466,VALID,0,VALID,97.9619,VALID,-0.0679233,VALID,18.341,VALID,23,VALID,0.106831,
2009-02-05, 02:44:00,VALID,917.455,VALID,0,VALID,98.131,VALID,-0.0509425,VALID,18.3311,VALID,17,VALID,0.061481,
2009-02-05, 02:45:00,VALID,917.435,VALID,0,VALID,98.1857,VALID,-0.0679233,VALID,18.3086,VALID,20,VALID,0,
2009-02-05, 02:46:00,VALID,917.445,VALID,0,VALID,98.4171,VALID,-0.0679233,VALID,18.2915,VALID,33,VALID,0.262718,
2009-02-05, 02:47:00,VALID,917.446,VALID,0,VALID,98.688,VALID,-0.0509425,VALID,18.3443,VALID,32,VALID,0.256904,
2009-02-05, 02:48:00,VALID,917.452,VALID,0,VALID,98.6117,VALID,-0.0509425,VALID,18.3797,VALID,37,VALID,0.0773983,
2009-02-05, 02:49:00,VALID,917.441,VALID,0,VALID,98.4527,VALID,-0.0849042,VALID,18.4064,VALID,18,VALID,0,
2009-02-05, 02:50:00,VALID,917.451,VALID,0,VALID,98.3497,VALID,-0.0509425,VALID,18.3992,VALID,20,VALID,0.072516,
2009-02-05, 02:51:00,VALID,917.446,VALID,0,VALID,98.2696,VALID,-0.0339617,VALID,18.3857,VALID,24,VALID,0.0424107,
2009-02-05, 02:52:00,VALID,917.454,VALID,0,VALID,98.3128,VALID,-0.0509425,VALID,18.3867,VALID,21,VALID,0,
2009-02-05, 02:53:00,VALID,917.446,VALID,0,VALID,98.4286,VALID,-0.0679233,VALID,18.3864,VALID,23,VALID,0,
2009-02-05, 02:54:00,VALID,917.449,VALID,0,VALID,98.4476,VALID,-0.0849042,VALID,18.4256,VALID,31,VALID,0,
2009-02-05, 02:55:00,VALID,917.448,VALID,0,VALID,98.4743,VALID,-0.0679233,VALID,18.4613,VALID,27,VALID,0.242001,
2009-02-05, 02:56:00,VALID,917.455,VALID,0,VALID,98.3726,VALID,-0.0679233,VALID,18.5257,VALID,29,VALID,0.00228659,
2009-02-05, 02:57:00,VALID,917.437,VALID,0,VALID,98.1335,VALID,-0.0679233,VALID,18.5479,VALID,32,VALID,0,
2009-02-05, 02:58:00,VALID,917.446,VALID,0,VALID,98.0445,VALID,-0.0679233,VALID,18.6008,VALID,30,VALID,0.117188,
2009-02-05, 02:59:00,VALID,917.444,VALID,0,VALID,97.8029,VALID,-0.0679233,VALID,18.6397,VALID,37,VALID,0.122638,
2009-02-05, 03:00:00,VALID,917.442,VALID,0,VALID,97.6122,VALID,-0.0849042,VALID,18.6302,VALID,31,VALID,0,
2009-02-05, 03:01:00,VALID,917.439,VALID,0,VALID,97.6084,VALID,-0.0679233,VALID,18.6334,VALID,31,VALID,0,
2009-02-05, 03:02:00,VALID,917.427,VALID,0,VALID,97.6465,VALID,-0.0509425,VALID,18.6265,VALID,31,VALID,0,
2009-02-05, 03:03:00,VALID,917.408,VALID,0,VALID,97.663,VALID,-0.0849042,VALID,18.6128,VALID,22,VALID,0.0355283,
2009-02-05, 03:04:00,VALID,917.388,VALID,0,VALID,97.616,VALID,-0.0849042,VALID,18.6362,VALID,19,VALID,0.103472,
2009-02-05, 03:05:00,VALID,917.38,VALID,0,VALID,97.5155,VALID,-0.0849042,VALID,18.6624,VALID,17,VALID,0.137398,
2009-02-05, 03:06:00,VALID,917.382,VALID,0,VALID,97.2777,VALID,-0.0849042,VALID,18.6621,VALID,39,VALID,0,
2009-02-05, 03:07:00,VALID,917.372,VALID,0,VALID,97.2167,VALID,-0.0339617,VALID,18.6494,VALID,39,VALID,0,
2009-02-05, 03:08:00,VALID,917.362,VALID,0,VALID,97.2828,VALID,0,VALID,18.645,VALID,39,VALID,0,
2009-02-05, 03:09:00,VALID,917.35,VALID,0,VALID,97.3451,VALID,0,VALID,18.6385,VALID,23,VALID,0.103981,
2009-02-05, 03:10:00,VALID,917.334,VALID,0,VALID,97.4532,VALID,-0.0169808,VALID,18.6709,VALID,19,VALID,0.0145089,
2009-02-05, 03:11:00,VALID,917.332,VALID,0,VALID,97.3693,VALID,-0.0169808,VALID,18.7163,VALID,40,VALID,0,
2009-02-05, 03:12:00,VALID,917.315,VALID,0,VALID,97.115,VALID,0,VALID,18.739,VALID,40,VALID,0,
2009-02-05, 03:13:00,VALID,917.299,VALID,0,VALID,96.9433,VALID,0.0339617,VALID,18.7261,VALID,40,VALID,0,
2009-02-05, 03:14:00,VALID,917.272,VALID,0,VALID,96.9319,VALID,0,VALID,18.6934,VALID,40,VALID,0,
2009-02-05, 03:15:00,VALID,917.253,VALID,0,VALID,97.0196,VALID,0.0339617,VALID,18.6542,VALID,39,VALID,0.0317708,
2009-02-05, 03:16:00,VALID,917.229,VALID,0,VALID,97.0616,VALID,0.0169808,VALID,18.6128,VALID,26,VALID,0.0123547,
2009-02-05, 03:17:00,VALID,917.227,VALID,0,VALID,97.3312,VALID,0,VALID,18.5694,VALID,26,VALID,0,
2009-02-05, 03:18:00,VALID,917.222,VALID,0,VALID,97.4596,VALID,0,VALID,18.5796,VALID,26,VALID,0,
2009-02-05, 03:19:00,VALID,917.192,VALID,0,VALID,97.3986,VALID,0.0169808,VALID,18.5794,VALID,26,VALID,0,
2009-02-05, 03:20:00,VALID,917.157,VALID,0,VALID,97.3642,VALID,-0.0169808,VALID,18.5796,VALID,26,VALID,0,
2009-02-05, 03:21:00,VALID,917.135,VALID,0,VALID,97.3718,VALID,0,VALID,18.5669,VALID,26,VALID,0,
2009-02-05, 03:22:00,VALID,917.127,VALID,0,VALID,97.368,VALID,-0.0169808,VALID,18.5544,VALID,26,VALID,0,
2009-02-05, 03:23:00,VALID,917.111,VALID,0,VALID,97.3909,VALID,0.0169808,VALID,18.5347,VALID,26,VALID,0,
2009-02-05, 03:24:00,VALID,917.089,VALID,0,VALID,97.4558,VALID,0,VALID,18.499,VALID,26,VALID,0,
2009-02-05, 03:25:00,VALID,917.067,VALID,0,VALID,97.6274,VALID,0,VALID,18.4501,VALID,26,VALID,0,
2009-02-05, 03:26:00,VALID,917.061,VALID,0,VALID,97.7393,VALID,0,VALID,18.4214,VALID,26,VALID,0,
2009-02-05, 03:27:00,VALID,917.044,VALID,0,VALID,97.8818,VALID,-0.0169808,VALID,18.3788,VALID,26,VALID,0,
2009-02-05, 03:28:00,VALID,917.04,VALID,0,VALID,98.1259,VALID,0.0169808,VALID,18.3524,VALID,26,VALID,0,
2009-02-05, 03:29:00,VALID,917.046,VALID,0,VALID,98.2747,VALID,0,VALID,18.3725,VALID,26,VALID,0,
2009-02-05, 03:30:00,VALID,917.057,VALID,0,VALID,98.3128,VALID,0,VALID,18.3758,VALID,26,VALID,0,
2009-02-05, 03:31:00,VALID,917.066,VALID,0,VALID,98.22,VALID,0,VALID,18.3725,VALID,26,VALID,0,
2009-02-05, 03:32:00,VALID,917.072,VALID,0,VALID,98.2327,VALID,0.0339617,VALID,18.3501,VALID,182,VALID,0,
2009-02-05, 03:33:00,VALID,917.086,VALID,0,VALID,98.3268,VALID,0,VALID,18.3274,VALID,205,VALID,0,
2009-02-05, 03:34:00,VALID,917.072,VALID,0,VALID,98.4692,VALID,0,VALID,18.3206,VALID,205,VALID,0,
2009-02-05, 03:35:00,VALID,917.078,VALID,0,VALID,98.4642,VALID,-0.0169808,VALID,18.3304,VALID,205,VALID,0,
2009-02-05, 03:36:00,VALID,917.074,VALID,0,VALID,98.3179,VALID,0,VALID,18.2979,VALID,205,VALID,0,
2009-02-05, 03:37:00,VALID,917.08,VALID,0,VALID,98.3561,VALID,0.0339617,VALID,18.2653,VALID,205,VALID,0,
2009-02-05, 03:38:00,VALID,917.088,VALID,0,VALID,98.5125,VALID,0.0169808,VALID,18.2426,VALID,205,VALID,0,
2009-02-05, 03:39:00,VALID,917.082,VALID,0,VALID,98.604,VALID,0,VALID,18.2199,VALID,205,VALID,0,
2009-02-05, 03:40:00,VALID,917.064,VALID,0,VALID,98.7859,VALID,0,VALID,18.2136,VALID,205,VALID,0,
2009-02-05, 03:41:00,VALID,917.046,VALID,0,VALID,98.8851,VALID,0.0169808,VALID,18.2104,VALID,205,VALID,0,
2009-02-05, 03:42:00,VALID,917.036,VALID,0,VALID,99.0148,VALID,0.0509425,VALID,18.2067,VALID,205,VALID,0,
2009-02-05, 03:43:00,VALID,917.022,VALID,0,VALID,99.0173,VALID,0.0339617,VALID,18.2099,VALID,205,VALID,0,
2009-02-05, 03:44:00,VALID,917.017,VALID,0,VALID,98.894,VALID,0.0339617,VALID,18.1942,VALID,205,VALID,0,